"Pseudo-MPEC" for P11BXOO

Created 2022 Nov 26 12:22:17 UT using Find_Orb

Click here for an explanation of pseudo-MPECs

 
 Astrometry: 
     P11BXOO* C2022 11 23+[h?9+oY)g.:aMuh?!:nm\au/p0*f?/5Xn+8RLl3MgVGiJc7P0MkF51
     P11BXOO  C2022 11 23_7bpu(f;k!s``el3f^m%V:H'Astrometry#:14g#M$eCG/;91hSKF51
     P11BXOO  C2022 11 23TE8t]9gbI\e*_%Ml?!K^xK+.@xsbQxpP7j3P2PSn;^-tT5@sjkWhF51
     P11BXOO  C2022 11 23pPj;#SlIw9n0C:PN/h5)BJ$onoL]fCgredacted;0^kc*Gg':[l]F51
     P11BXOO  C2022 11 23;`3ipV$Sx)Wnw't4G=VW!!A,H.gbC3y^t2Mjh+wAh/5f6/T]'0:(F51
     P11BXOO  C2022 11 2315hYw0u@Ct$=a+a)k9JclickYH9y8#Tu*if*YU=V?9wb3UNaAXRZF51
     P11BXOO |C2022 11 24\e(Pe@Sso]79#ur29(QR%:?5thereHvoZ(PG2l2-y_6wo:LALeJ$807
     P11BXOO |C2022 11 24q)rkF9n;svE5DX\0e[pArGkfs289\p0fB!*h:S^g))#';98NbF/m807
     P11BXOO |C2022 11 24f\%%uO,(raf:?xiI\F*w9BXh*Zhm'UP`4%ce^5MKP)D(LGdMRfNt807
     P11BXOO mC2022 11 24.35305305 43 18.836-01 45 54.61   ~BO97 21.29GVNEOCPI52
     P11BXOO mC2022 11 24.35543705 43 19.405-01 45 51.26   ~BO97 20.96GVNEOCPI52
     P11BXOO mC2022 11 24.35936105 43 20.269-01 45 45.72   ~BO97 20.65GVNEOCPI52
     P11BXOO mC2022 11 24.36907105 43 22.411-01 45 30.71   ~BO97 21.15GVNEOCPI52
     P11BXOO KC2022 11 24.3.w5,0u@jx]U6s(;Ie`+8aJemf+v::for/Hki7wT2qDdTyU'\p*L01
     P11BXOO KC2022 11 24G069r`$?d;@$$BonYlHE=ldKE?S'5])FsBr3!k9e-3C1U8Yh^'4!L01
     P11BXOO KC2022 11 24MRLsqYT`=],6ZX$5Jexplanation=T1QwB`iVOM]=(1I.^@h8Z_PL01
     P11BXOO KC2022 11 24gOdySyIq-Z*WM3ETJ\[eDs+f2fKb-UL,.%0Y2D[p!RChww9:3N%1L01
     P11BXOO KC2022 11 24HeR4+Wvl2RA'bma6ch`+?7xYJ95(XgcE8/W:aRu$SheiQ[1kfP(dL01
     P11BXOO KC2022 11 26RE#BM5/jx.\a@QHr%oEn'YlGdtfN'e+#l@26rusY;$[3*9SaaThuH21
     P11BXOO KC2022 11 266_NVg/Ar2gly$tQQ5/29NoGj1UX,UHk]X2my*YAPXEnRPEA_1Dx:H21

Station data:
(807) Cerro Tololo Observatory, La Serena  (S30.169133 W70.805900)  Chile.
   Observer R. Holmes. 0.61-m f/6.5 astrograph + CCD.
(F51) Pan-STARRS 1, Haleakala  (N20.707234 W156.255910)  US/Hawaii.
   Observers J. Bulger, T. Lowe, A. Schultz, M. Willman. Measurers K.
   Chambers, S. Chastel, T. de Boer, L. Denneau, J. Fairlamb, H. Flewelling,
   M. Huber, C.-C. Lin, E. Magnier, Y. Ramanjooloo, R. Wainscoat, R. Weryk.
   1.8-m Ritchey-Chrétien + CCD.
(H21) Astronomical Research Observatory, Westfield  (N39.483054 W87.968270)
   US/Illinois.  Observer R. Holmes. Measurers S. Foglia, L. Buzzi, T.
   Linder, R. Holmes. 0.76-m f/3.0 astrograph + CCD0.81-m f/4.0 astrograph +
   CCD0.61-m f/4.5 astrograph + CCD0.40-m f/5.32 astrograph + CCD.
(I52) Steward Observatory, Mt. Lemmon Station  (N32.442544 W110.788920)
   US/Arizona.  Observers T. A. Pruyne, B. M. Africano, E. J. Christensen, G.
   A. Farneth, D. C. Fuls, A. R. Gibbs, A. D. Grauer, H. Gröller, J. A.
   Johnson, R. A. Kowalski, S. M. Larson, G. J. Leonard, D. Rankin, R. L.
   Seaman, F. C. Shelly, K. W. Wierzchoś. 1.0-m reflector + CCD.
(L01) Višnjan Observatory, Tičan  (N45.290897 E13.749300)  Croatia.
   Observers K. Korlević, D. Pujagic, V. Dobos. Measurers D. Pujagic, K.
   Korlević. 1.0-m f/2.9 reflector + CCD.

Orbital elements:  P11BXOO
   Perihelion 2022 Dec 29.10921 +/- 0.0364 TT =  2:37:15 (JD 2459942.60921)
Epoch 2022 Nov 26.0 TT = JDT 2459909.5   Earth MOID: 0.0385   Ma: 0.0711
M 338.95021233 +/- 0.043            (J2000 ecliptic)          AutoNEOCP
n   0.63576842 +/- 0.000821         Peri.   13.01218 +/- 0.053
a   1.33948157 +/- 0.00115          Node    86.39743 +/- 0.016
e   0.2388500 +/- 0.00057           Incl.    4.97779 +/- 0.009
P   1.55/566.23d           H 25.1   G  0.15   U  8.0
q 1.01954630 +/- 0.000133    Q 1.65941684 +/- 0.00219
From 20 observations 2022 Nov. 23-26; mean residual 0".23
Residuals in arcseconds: 
221123 F51  .31+  .10+    221124 807  .06+  .02-    221124 L01  .28+  .11-    
221123 F51  .03+  .01-    221124 807  .08-  .04+    221124 L01  .06-  .06-    
221123 F51  .10+  .01+    221124 I52  .05-  .04-    221124 L01  .24-  .54+    
221123 F51  .05-  .00     221124 I52  .46+  .21-    221124 L01  .56-  .34+    
221123 F51  .19-  .06-    221124 I52  .20+  .47-    221126 H21  .10+  .11-    
221123 F51  .17-  .05+    221124 I52  .37-  .17+    221126 H21  .07-  .05-    
221124 807  .20-  .13-    221124 L01  .48+  .23+    

Ephemerides (geocentric):
Date (UTC) HH   RA             Dec           delta  r     elong  mag " sig PA
---- --------  ------------   ------------  ------ ------ -----  --- --------
2022 11 26 12  05 53 04.879   -00 46 19.11  .07971 1.0542 146.3 21.1 .226  17
2022 11 26 13  05 53 16.808   -00 45 03.88  .07962 1.0542 146.3 21.1 .232  18
2022 11 26 14  05 53 28.759   -00 43 48.37  .07952 1.0541 146.3 21.1 .239  18
2022 11 26 15  05 53 40.732   -00 42 32.59  .07943 1.0540 146.3 21.1 .246  19
2022 11 26 16  05 53 52.726   -00 41 16.53  .07933 1.0539 146.3 21.1 .254  20
2022 11 26 17  05 54 04.743   -00 40 00.19  .07924 1.0538 146.3 21.1 .261  20
2022 11 26 18  05 54 16.781   -00 38 43.58  .07914 1.0537 146.3 21.0 .269  21
2022 11 26 19  05 54 28.841   -00 37 26.68  .07905 1.0536 146.3 21.0 .277  22
2022 11 26 20  05 54 40.923   -00 36 09.51  .07896 1.0536 146.3 21.0 .285  22
2022 11 26 21  05 54 53.027   -00 34 52.06  .07886 1.0535 146.3 21.0 .293  23
2022 11 26 22  05 55 05.153   -00 33 34.32  .07877 1.0534 146.3 21.0 .302  23
2022 11 26 23  05 55 17.302   -00 32 16.31  .07867 1.0533 146.3 21.0 .310  24
2022 11 27 00  05 55 29.472   -00 30 58.01  .07858 1.0532 146.4 21.0 .319  25
2022 11 27 01  05 55 41.665   -00 29 39.44  .07849 1.0531 146.4 21.0 .329  25
2022 11 27 02  05 55 53.881   -00 28 20.58  .07839 1.0531 146.4 21.0 .338  26
2022 11 27 03  05 56 06.118   -00 27 01.43  .07830 1.0530 146.4 21.0 .347  26
2022 11 27 04  05 56 18.378   -00 25 42.01  .07821 1.0529 146.4 21.0 .357  27
2022 11 27 05  05 56 30.661   -00 24 22.30  .07811 1.0528 146.4 21.0 .367  27
2022 11 27 06  05 56 42.966   -00 23 02.30  .07802 1.0527 146.4 21.0 .377  28
2022 11 27 07  05 56 55.294   -00 21 42.02  .07793 1.0526 146.4 21.0 .388  28
2022 11 27 08  05 57 07.644   -00 20 21.46  .07784 1.0526 146.4 21.0 .398  29
2022 11 27 09  05 57 20.017   -00 19 00.60  .07774 1.0525 146.4 21.0 .409  29
2022 11 27 10  05 57 32.413   -00 17 39.46  .07765 1.0524 146.4 21.0 .420  30
2022 11 27 11  05 57 44.832   -00 16 18.04  .07756 1.0523 146.4 21.0 .431  30
2022 11 27 12  05 57 57.274   -00 14 56.32  .07747 1.0522 146.4 21.0 .443  30
2022 11 27 13  05 58 09.738   -00 13 34.32  .07738 1.0521 146.4 21.0 .455  31
2022 11 27 14  05 58 22.226   -00 12 12.03  .07728 1.0521 146.4 21.0 .466  31
2022 11 27 15  05 58 34.737   -00 10 49.44  .07719 1.0520 146.4 21.0 .479  32
2022 11 27 16  05 58 47.270   -00 09 26.57  .07710 1.0519 146.4 21.0 .491  32
2022 11 27 17  05 58 59.827   -00 08 03.41  .07701 1.0518 146.4 21.0 .504  32
2022 11 27 18  05 59 12.408   -00 06 39.95  .07692 1.0517 146.4 21.0 .516  33
2022 11 27 19  05 59 25.011   -00 05 16.20  .07683 1.0516 146.4 21.0 .529  33
2022 11 27 20  05 59 37.638   -00 03 52.16  .07673 1.0516 146.5 21.0 .543  33
2022 11 27 21  05 59 50.289   -00 02 27.83  .07664 1.0515 146.5 21.0 .556  34
2022 11 27 22  06 00 02.962   -00 01 03.21  .07655 1.0514 146.5 21.0 .570  34
2022 11 27 23  06 00 15.660   +00 00 21.71  .07646 1.0513 146.5 21.0 .584  34
2022 11 28 00  06 00 28.381   +00 01 46.93  .07637 1.0512 146.5 21.0 .598  35
2022 11 28 01  06 00 41.125   +00 03 12.44  .07628 1.0512 146.5 21.0 .613  35
2022 11 28 02  06 00 53.894   +00 04 38.25  .07619 1.0511 146.5 21.0 .627  35
2022 11 28 03  06 01 06.686   +00 06 04.35  .07610 1.0510 146.5 21.0 .642  36
2022 11 28 04  06 01 19.501   +00 07 30.75  .07601 1.0509 146.5 21.0 .658  36
2022 11 28 05  06 01 32.341   +00 08 57.44  .07592 1.0508 146.5 21.0 .673  36
2022 11 28 06  06 01 45.205   +00 10 24.44  .07583 1.0507 146.5 20.9 .689  36
2022 11 28 07  06 01 58.092   +00 11 51.73  .07574 1.0507 146.5 20.9 .705  37
2022 11 28 08  06 02 11.004   +00 13 19.32  .07565 1.0506 146.5 20.9 .721  37
2022 11 28 09  06 02 23.940   +00 14 47.21  .07556 1.0505 146.5 20.9 .737  37
2022 11 28 10  06 02 36.900   +00 16 15.40  .07547 1.0504 146.5 20.9 .754  37
2022 11 28 11  06 02 49.884   +00 17 43.89  .07538 1.0503 146.5 20.9 .771  38